Date String (YYYY-MM-DD hh:mm:ss) UTC,Instrument flags,Ambient pressure (hPa),Sample flow (lpm),Bypass flow (lpm),Sample temperature (°C),Ambient temperature (°C),ASC tube jacket temperature (°C),LED temperature (°C),Box temperature (°C),Sample RH (%),Span deviation,Mass concentration (μg/m³),Mass concentration (μg/m³),Mass concentration (μg/m³)
DateTimeUTC,F1_M11,P_M11,Q1_M11,Q2_M11,T1_M11,T2_M11,T3_M11,T4_M11,T5_M11,U1_M11,ZSPAN_M11,X0_M11,X2_M11,X1_M11
2022-05-05 19:00:00,,0823.9,4.99,0.00,26.7,26.1,00.0,35.6,28.6,20.8,0000.0,0008.04,0004.51,0003.92
2022-05-05 19:01:00,,0824.0,5.00,0.00,26.7,26.1,00.0,35.6,28.6,20.6,0000.0,0008.08,0004.52,0003.93
2022-05-05 19:02:00,,0823.9,4.99,0.00,26.8,26.1,00.0,35.6,28.6,21.0,0000.0,0008.71,0004.58,0003.95
2022-05-05 19:03:00,,0823.9,5.01,0.00,26.8,26.1,00.0,35.6,28.6,21.6,0000.0,0009.10,0004.63,0003.97
2022-05-05 19:04:00,,0823.9,4.99,0.00,26.8,26.1,00.0,35.6,28.6,20.2,0000.0,0009.12,0004.67,0003.99
2022-05-05 19:05:00,,0823.8,5.01,0.00,26.8,26.1,00.0,35.6,28.7,21.6,0000.0,0009.23,0004.73,0004.01
2022-05-05 19:06:00,,0823.8,5.00,0.00,26.8,26.2,00.0,35.6,28.7,22.7,0000.0,0009.23,0004.75,0004.03
2022-05-05 19:07:00,,0823.9,5.01,0.00,26.8,26.2,00.0,35.6,28.6,21.2,0000.0,0009.27,0004.77,0004.04
2022-05-05 19:08:00,,0823.9,4.99,0.00,26.8,26.2,00.0,35.6,28.6,22.3,0000.0,0009.32,0004.79,0004.04
2022-05-05 19:09:00,,0823.9,5.02,0.00,26.8,26.2,00.0,35.6,28.6,20.6,0000.0,0009.02,0004.80,0004.06
2022-05-05 19:10:00,,0823.9,5.00,0.00,26.8,26.2,00.0,35.6,28.6,20.3,0000.0,0008.96,0004.78,0004.07
2022-05-05 19:11:00,,0823.8,5.00,0.00,26.8,26.2,00.0,35.6,28.7,20.6,0000.0,0008.83,0004.75,0004.07
2022-05-05 19:12:00,,0823.8,5.01,0.00,26.8,26.2,00.0,35.6,28.7,21.1,0000.0,0008.74,0004.74,0004.06
2022-05-05 19:13:00,,0823.8,5.00,0.00,26.8,26.2,00.0,35.7,28.7,20.8,0000.0,0008.28,0004.69,0004.04
2022-05-05 19:14:00,,0823.8,4.99,0.00,26.8,26.2,00.0,35.7,28.7,20.1,0000.0,0008.07,0004.66,0004.03
2022-05-05 19:15:00,,0823.8,5.00,0.00,26.8,26.2,00.0,35.7,28.7,20.4,0000.0,0008.21,0004.64,0004.01
2022-05-05 19:16:00,,0823.8,4.99,0.00,26.8,26.2,00.0,35.7,28.7,19.5,0000.0,0008.12,0004.61,0003.99
2022-05-05 19:17:00,,0823.7,4.98,0.00,26.8,26.2,00.0,35.7,28.7,20.0,0000.0,0008.06,0004.57,0003.97
2022-05-05 19:18:00,,0823.7,5.01,0.00,26.9,26.3,00.0,35.7,28.8,21.3,0000.0,0008.09,0004.59,0003.97
2022-05-05 19:19:00,,0823.8,4.99,0.00,26.9,26.3,00.0,35.7,28.8,20.4,0000.0,0008.10,0004.61,0004.01
2022-05-05 19:20:00,,0823.8,5.00,0.00,26.9,26.3,00.0,35.7,28.8,20.6,0000.0,0008.11,0004.62,0004.04
2022-05-05 19:21:00,,0823.7,4.99,0.00,26.9,26.3,00.0,35.7,28.8,20.8,0000.0,0008.08,0004.65,0004.06
2022-05-05 19:22:00,,0823.7,5.01,0.00,26.9,26.4,00.0,35.7,28.8,20.4,0000.0,0008.13,0004.68,0004.08
2022-05-05 19:23:00,,0823.7,5.00,0.00,26.9,26.4,00.0,35.8,28.8,19.4,0000.0,0008.14,0004.68,0004.09
2022-05-05 19:24:00,,0823.7,4.99,0.00,27.0,26.4,00.0,35.8,28.9,19.3,0000.0,0008.10,0004.70,0004.11
2022-05-05 19:25:00,,0823.7,5.01,0.00,27.0,26.4,00.0,35.8,28.9,19.7,0000.0,0007.91,0004.69,0004.12
2022-05-05 19:26:00,,0823.7,4.99,0.00,27.0,26.4,00.0,35.8,28.9,19.1,0000.0,0007.79,0004.71,0004.13
2022-05-05 19:27:00,,0823.7,5.01,0.00,27.0,26.4,00.0,35.8,28.9,20.1,0000.0,0007.84,0004.73,0004.15
2022-05-05 19:28:00,,0823.7,4.99,0.00,27.0,26.5,00.0,35.8,28.9,19.5,0000.0,0007.89,0004.75,0004.16
2022-05-05 19:29:00,,0823.7,5.00,0.00,27.0,26.5,00.0,35.8,29.0,20.7,0000.0,0007.82,0004.71,0004.16
2022-05-05 19:30:00,,0823.6,5.00,0.00,27.1,26.5,00.0,35.8,29.0,20.5,0000.0,0007.67,0004.64,0004.11
2022-05-05 19:31:00,,0823.7,4.99,0.00,27.1,26.5,00.0,35.9,29.0,19.5,0000.0,0007.65,0004.62,0004.08
2022-05-05 19:32:00,,0823.7,4.98,0.00,27.1,26.5,00.0,35.9,29.0,19.2,0000.0,0007.85,0004.63,0004.05
2022-05-05 19:33:00,,0823.7,5.01,0.00,27.1,26.5,00.0,35.9,29.0,19.0,0000.0,0008.25,0004.62,0004.03
2022-05-05 19:34:00,,0823.6,4.99,0.00,27.1,26.5,00.0,35.9,29.0,19.9,0000.0,0008.28,0004.60,0004.01
2022-05-05 19:35:00,,0823.7,5.01,0.00,27.1,26.5,00.0,35.9,29.0,19.1,0000.0,0008.48,0004.59,0003.99
2022-05-05 19:36:00,,0823.6,4.99,0.00,27.1,26.5,00.0,35.9,29.0,19.1,0000.0,0008.51,0004.58,0003.97
2022-05-05 19:37:00,,0823.6,5.01,0.00,27.1,26.5,00.0,35.9,29.0,18.7,0000.0,0008.46,0004.55,0003.93
2022-05-05 19:38:00,,0823.6,5.00,0.00,27.1,26.5,00.0,35.9,29.0,18.9,0000.0,0008.50,0004.55,0003.91
2022-05-05 19:39:00,,0823.6,4.99,0.00,27.1,26.5,00.0,35.9,29.0,18.6,0000.0,0008.51,0004.53,0003.87
2022-05-05 19:40:00,,0823.7,5.01,0.00,27.1,26.5,00.0,35.9,29.0,18.5,0000.0,0008.55,0004.53,0003.84
2022-05-05 19:41:00,,0823.7,5.00,0.00,27.1,26.5,00.0,35.9,29.0,18.5,0000.0,0009.65,0004.55,0003.81
2022-05-05 19:42:00,,0823.6,5.00,0.00,27.1,26.6,00.0,36.0,29.0,18.9,0000.0,0009.64,0004.52,0003.78
2022-05-05 19:43:00,,0823.7,5.01,0.00,27.2,26.6,00.0,36.0,29.1,19.4,0000.0,0009.57,0004.48,0003.75
2022-05-05 19:44:00,,0823.6,4.99,0.00,27.2,26.6,00.0,36.0,29.1,19.4,0000.0,0009.02,0004.46,0003.76
2022-05-05 19:45:00,,0823.7,5.00,0.00,27.2,26.6,00.0,36.0,29.1,19.3,0000.0,0009.13,0004.51,0003.77
2022-05-05 19:46:00,,0823.7,5.00,0.00,27.2,26.6,00.0,36.0,29.1,19.7,0000.0,0008.99,0004.54,0003.79
2022-05-05 19:47:00,,0823.6,4.99,0.00,27.2,26.7,00.0,36.0,29.2,19.7,0000.0,0009.08,0004.54,0003.78
2022-05-05 19:48:00,,0823.6,4.99,0.00,27.3,26.7,00.0,36.0,29.2,19.4,0000.0,0009.15,0004.55,0003.80
2022-05-05 19:49:00,,0823.6,5.01,0.00,27.3,26.7,00.0,36.0,29.2,19.6,0000.0,0009.07,0004.51,0003.80
2022-05-05 19:50:00,,0823.6,5.00,0.00,27.3,26.7,00.0,36.1,29.2,19.7,0000.0,0008.93,0004.48,0003.80
2022-05-05 19:51:00,,0823.5,5.00,0.00,27.3,26.7,00.0,36.1,29.2,19.0,0000.0,0008.90,0004.48,0003.80
2022-05-05 19:52:00,,0823.5,4.99,0.00,27.3,26.8,00.0,36.1,29.2,19.9,0000.0,0008.10,0004.48,0003.81
2022-05-05 19:53:00,,0823.5,5.01,0.00,27.3,26.8,00.0,36.1,29.3,19.5,0000.0,0007.96,0004.49,0003.81
2022-05-05 19:54:00,,0823.5,5.00,0.00,27.4,26.8,00.0,36.1,29.3,19.0,0000.0,0008.02,0004.49,0003.79
2022-05-05 19:55:00,,0823.5,4.99,0.00,27.4,26.8,00.0,36.1,29.3,18.6,0000.0,0008.06,0004.46,0003.75
2022-05-05 19:56:00,,0823.5,5.01,0.00,27.4,26.8,00.0,36.2,29.3,18.3,0000.0,0007.95,0004.39,0003.71
2022-05-05 19:57:00,,0823.5,4.99,0.00,27.4,26.8,00.0,36.2,29.3,18.7,0000.0,0007.88,0004.34,0003.66
2022-05-05 19:58:00,,0823.5,5.00,0.00,27.4,26.8,00.0,36.2,29.3,19.3,0000.0,0007.89,0004.33,0003.63
2022-05-05 19:59:00,,0823.4,4.99,0.00,27.4,26.9,00.0,36.2,29.4,19.3,0000.0,0007.86,0004.27,0003.59
